Voltar ao catálogo

INTELSAT 21

AtivoComunicaçõesGEO
NORAD 38749·PAYLOAD· XX

Lançado Aug 19, 2012 de Sea Launch Platform

Loading…

TLE

AtualizadoSource: CelesTrak SupGP

Época: Sep 14, 2026, 00:00 UTC

1 38749C 12045A   26257.00000000 -.00003068  00000+0  00000+0 0  2578
2 38749   0.0004 190.1962 0002394 358.1153 106.6797  1.00272224    16

Acompanhe INTELSAT 21 em tempo real com AllMySat

Download on the App Store